カタログに戻る

STARLINK-5769

運用中通信VLEO
NORAD 55585·PAYLOAD·🇺🇸 United States

打ち上げ Feb 12, 2023 から Cape Canaveral Space Force Station

Loading…

次のパス (今後24時間)

TLE

最新Source: CelesTrak SupGP

元期: Sep 14, 2026, 14:04 UTC

1 55585C 23020S   26257.58659722 -.00011897  00000+0 -43097-3 0  2571
2 55585  43.0036   7.7607 0002290 276.4166 135.6732 15.27578584    18

AllMySatでSTARLINK-5769をリアルタイム追跡

Download on the App Store